FW7070 Weather Reports


time (UTC)temp
C
wind
direction
speed
KPH
gust
KPH
rain 1hr
cm
rain 24hr
cm
rain mn
cm
humidity
%
barometer
mb
20260506003058 8 44 0.0 1.6 0.30 1.27 1.27 99 1029.5
20260506002554 8 229 0.0 1.6 0.36 1.24 1.24 99 1029.6
20260506002050 8 0 0.0 3.2 0.23 1.22 1.22 99 1029.6
20260506001547 8 119 0.0 3.2 0.13 1.19 1.19 99 1029.2
20260506001044 8 174 0.0 1.6 0.23 1.17 1.17 99 1029.2
20260506000542 8 164 0.0 3.2 0.36 1.17 1.17 99 1029.1
20260506000039 8 50 3.2 3.2 0.30 1.14 1.14 99 1029.0
20260505235537 8 130 0.0 1.6 0.23 1.09 1.09 99 1029.2
20260505235033 8 129 0.0 1.6 0.23 1.07 1.07 99 1029.0
20260505234530 8 124 0.0 1.6 0.30 1.07 1.07 99 1029.0
20260505234027 8 35 0.0 1.6 0.23 1.04 1.04 99 1029.1
20260505233525 8 309 0.0 0.0 0.18 1.02 1.02 99 1028.8
20260505233022 9 164 0.0 1.6 0.23 0.99 0.99 99 1028.9
20260505232520 9 31 1.6 3.2 0.23 0.99 0.99 99 1029.1
20260505232017 9 267 3.2 4.8 0.23 0.94 0.94 99 1029.1
20260505231514 8 67 1.6 3.2 0.36 0.94 0.94 99 1028.9
20260505231013 9 305 3.2 3.2 0.30 0.91 0.91 99 1029.0
20260505230509 9 320 0.0 4.8 0.13 0.86 0.86 99 1029.1
20260505230006 9 293 3.2 4.8 0.18 0.86 0.86 99 1029.1
20260505225503 9 304 1.6 3.2 0.23 0.86 0.86 99 1028.8
20260505224959 10 308 0.0 3.2 0.23 0.84 0.84 99 1028.4
20260505224456 10 314 3.2 8.0 0.18 0.81 0.81 99 1028.3
20260505223953 10 1 4.8 8.0 0.13 0.79 0.79 99 1028.5
20260505223450 10 2 3.2 8.0 0.30 0.79 0.79 99 1028.7
20260505222946 10 333 8.0 9.7 0.36 0.76 0.76 99 1028.8
20260505222442 10 269 6.4 14.5 0.23 0.74 0.74 99 1028.9
20260505221938 11 274 3.2 16.1 0.18 0.71 0.71 99 1028.8
20260505221436 11 266 8.0 11.3 0.18 0.69 0.69 99 1028.6
20260505220933 11 258 11.3 17.7 0.23 0.69 0.69 99 1028.5
20260505220430 11 265 6.4 17.7 0.23 0.66 0.66 99 1028.5
20260505215927 11 256 11.3 17.7 0.30 0.64 0.64 99 1028.6
20260505215425 11 255 12.9 14.5 0.53 0.61 0.61 99 1028.4
20260505214923 11 256 9.7 19.3 0.53 0.58 0.58 99 1028.5
20260505214421 11 267 11.3 19.3 0.30 0.51 0.51 99 1028.5
20260505213918 11 244 14.5 24.1 0.36 0.48 0.48 99 1028.6
20260505213415 11 266 11.3 27.4 0.48 0.46 0.46 99 1028.3
20260505212911 11 252 8.0 17.7 0.48 0.43 0.43 98 1028.5
20260505212408 11 244 9.7 14.5 0.48 0.38 0.38 98 1028.4
20260505211905 11 255 16.1 19.3 0.30 0.33 0.33 98 1028.2
20260505211402 11 305 14.5 22.5 0.30 0.30 0.30 98 1028.0
20260505210858 11 260 14.5 17.7 0.36 0.28 0.28 98 1028.2
20260505210356 12 248 19.3 24.1 0.36 0.25 0.25 97 1027.9
20260505205852 12 242 11.3 16.1 0.30 0.23 0.23 97 1028.0
20260505205351 12 246 16.1 17.7 0.23 0.20 0.20 97 1027.6
20260505204847 12 276 4.8 14.5 0.30 0.18 0.18 96 1027.8
20260505204345 12 300 3.2 11.3 0.30 0.15 0.15 96 1027.7
20260505203842 12 249 6.4 11.3 0.30 0.13 0.13 95 1027.7
20260505203338 12 253 16.1 17.7 0.36 0.10 0.10 94 1027.4
20260505202835 12 262 3.2 9.7 0.18 0.08 0.08 93 1027.3
20260505202331 12 261 4.8 14.5 0.18 0.05 0.05 92 1027.5
20260505201828 12 269 9.7 22.5 0.05 0.03 0.03 90 1027.2
20260505201325 12 260 6.4 30.6 0.00 0.03 0.03 89 1027.3
20260505200824 13 263 6.4 14.5 0.00 0.03 0.03 88 1027.3
20260505200320 13 253 6.4 22.5 0.00 0.03 0.03 87 1027.6
20260505195815 13 241 9.7 16.1 0.00 0.03 0.03 87 1027.6
20260505195313 13 253 12.9 24.1 0.00 0.03 0.03 87 1027.5
20260505194810 13 265 8.0 17.7 0.00 0.03 0.03 87 1027.7
20260505194307 13 287 9.7 20.9 0.00 0.03 0.03 86 1027.9
20260505193802 13 292 8.0 17.7 0.00 0.03 0.03 86 1027.6
20260505193300 13 264 8.0 20.9 0.00 0.03 0.03 85 1027.5
20260505192758 13 276 9.7 16.1 0.00 0.03 0.03 85 1027.6
20260505192256 13 255 14.5 32.2 0.00 0.03 0.03 85 1027.5
20260505191754 13 272 8.0 29.0 0.00 0.03 0.03 85 1027.6
20260505191252 13 311 11.3 25.7 0.00 0.03 0.03 85 1027.7
20260505190748 13 256 12.9 27.4 0.00 0.03 0.03 85 1027.3
20260505190243 13 281 16.1 30.6 0.00 0.03 0.03 84 1027.3
20260505185740 13 251 6.4 22.5 0.00 0.03 0.03 84 1027.4
20260505185236 13 266 9.7 20.9 0.00 0.03 0.03 84 1027.2
20260505184732 13 267 8.0 22.5 0.00 0.03 0.03 83 1027.7
20260505184230 13 254 20.9 30.6 0.00 0.03 0.03 83 1027.5
20260505183726 13 261 12.9 24.1 0.00 0.03 0.03 81 1027.4
20260505183224 14 282 6.4 25.7 0.00 0.03 0.03 81 1027.5
20260505182720 14 276 19.3 41.8 0.00 0.03 0.03 80 1027.6
20260505182217 15 220 20.9 32.2 0.00 0.03 0.03 79 1027.4
20260505181713 15 323 29.0 29.0 0.00 0.03 0.03 79 1027.5
20260505181211 14 251 19.3 29.0 0.00 0.03 0.03 80 1027.1
20260505180708 14 282 8.0 33.8 0.00 0.03 0.03 80 1027.4
20260505180204 14 311 8.0 40.2 0.00 0.03 0.03 81 1026.9
20260505175700 14 251 11.3 27.4 0.00 0.03 0.03 79 1027.2
20260505175157 14 305 8.0 24.1 0.00 0.03 0.03 80 1026.9
20260505174653 15 260 9.7 24.1 0.00 0.03 0.03 79 1026.8
20260505174149 14 260 11.3 25.7 0.00 0.03 0.03 80 1026.8
20260505173646 13 255 14.5 25.7 0.00 0.03 0.03 81 1026.8
20260505173143 13 242 8.0 22.5 0.00 0.03 0.03 82 1026.7
20260505172641 13 267 17.7 25.7 0.00 0.03 0.03 82 1026.7
20260505172138 13 260 9.7 37.0 0.00 0.03 0.03 82 1026.8
20260505171637 13 249 16.1 35.4 0.00 0.03 0.03 80 1026.6
20260505171135 12 293 12.9 30.6 0.00 0.03 0.03 81 1026.8
20260505170632 13 259 11.3 27.4 0.00 0.03 0.03 80 1026.8
20260505170128 13 265 17.7 29.0 0.00 0.03 0.03 79 1026.7
20260505165623 13 273 8.0 32.2 0.00 0.03 0.03 78 1026.6
20260505165120 14 262 20.9 32.2 0.00 0.03 0.03 77 1026.5
20260505164615 14 310 11.3 25.7 0.00 0.03 0.03 77 1026.1
20260505164113 15 273 16.1 20.9 0.00 0.03 0.03 75 1026.2
20260505163611 15 289 12.9 43.5 0.00 0.03 0.03 73 1026.3
20260505163108 17 262 16.1 19.3 0.00 0.03 0.03 69 1025.9
20260505162606 17 310 4.8 20.9 0.00 0.03 0.03 71 1025.7
20260505162103 17 245 11.3 25.7 0.00 0.03 0.03 72 1025.2
20260505161600 16 245 11.3 17.7 0.00 0.03 0.03 73 1025.7
20260505161057 14 266 8.0 22.5 0.00 0.03 0.03 77 1025.4
20260505160555 13 232 16.1 30.6 0.00 0.03 0.03 78 1025.7
20260505153032 16 291 14.5 20.9 0.00 0.03 0.03 73 1025.8
20260505152529 16 308 8.0 17.7 0.00 0.03 0.03 71 1025.9
20260505152024 17 295 8.0 24.1 0.00 0.03 0.03 70 1025.9
20260505151519 18 283 11.3 27.4 0.00 0.03 0.03 66 1025.2
20260505151017 19 303 8.0 14.5 0.00 0.03 0.03 64 1025.0
20260505150513 19 238 19.3 37.0 0.00 0.03 0.03 63 1025.3
20260505140438 20 265 9.7 27.4 0.00 0.03 0.03 61 1024.0
20260505124852 20 262 14.5 30.6 0.00 0.03 0.03 63 1023.8
20260505124349 19 259 27.4 40.2 0.00 0.03 0.03 63 1023.5
20260505123845 19 246 20.9 30.6 0.00 0.03 0.03 63 1023.2
20260505123342 19 256 11.3 32.2 0.00 0.03 0.03 63 1023.6
20260505122837 19 236 14.5 40.2 0.00 0.03 0.03 64 1023.2
20260505122335 19 251 11.3 27.4 0.00 0.03 0.03 64 1023.2
20260505121832 19 248 14.5 30.6 0.00 0.03 0.03 64 1023.1
20260505121329 19 232 20.9 43.5 0.00 0.03 0.03 64 1023.4
20260505120825 19 238 35.4 38.6 0.00 0.03 0.03 64 1023.3
20260505120321 19 229 11.3 25.7 0.00 0.03 0.03 65 1023.4
20260505115820 19 236 8.0 24.1 0.00 0.03 0.03 64 1023.4
20260505115317 19 244 16.1 37.0 0.00 0.03 0.03 64 1023.2
20260505114815 19 260 11.3 22.5 0.00 0.03 0.03 64 1023.4
20260505114311 19 249 11.3 32.2 0.00 0.03 0.03 64 1023.0
20260505113808 19 265 14.5 41.8 0.00 0.03 0.03 63 1023.0
20260505113304 19 251 16.1 30.6 0.00 0.03 0.03 63 1023.0
20260505112800 19 253 11.3 48.3 0.00 0.03 0.03 63 1023.0
20260505112258 19 249 14.5 25.7 0.00 0.03 0.03 64 1023.1
20260505111758 19 261 14.5 29.0 0.00 0.03 0.03 63 1022.7
20260505111254 19 246 19.3 45.1 0.00 0.03 0.03 63 1022.8
20260505110750 19 245 19.3 33.8 0.00 0.03 0.03 64 1022.8
20260505110248 19 237 11.3 32.2 0.00 0.03 0.03 64 1022.5
20260505101722 18 239 12.9 24.1 0.00 0.03 0.03 67 1022.1
20260505101218 18 249 12.9 32.2 0.00 0.03 0.03 67 1022.1
20260505100714 18 248 12.9 22.5 0.00 0.03 0.03 67 1022.1
20260505100211 18 227 11.3 33.8 0.00 0.03 0.03 67 1022.0
20260505095707 18 228 11.3 30.6 0.00 0.03 0.03 67 1021.9
20260505095205 18 225 8.0 35.4 0.00 0.03 0.03 67 1021.9
20260505094700 18 236 4.8 25.7 0.00 0.03 0.03 67 1022.0
20260505094157 18 224 11.3 32.2 0.00 0.03 0.03 66 1021.7
20260505093653 18 241 12.9 35.4 0.00 0.03 0.03 67 1021.6
20260505093151 18 254 20.9 29.0 0.00 0.03 0.03 67 1021.9
20260505092647 18 229 17.7 37.0 0.00 0.03 0.03 66 1021.8
20260505092146 18 238 22.5 27.4 0.00 0.03 0.03 67 1022.0
20260505091643 18 228 8.0 45.1 0.00 0.03 0.03 68 1021.8
20260505091141 18 243 19.3 32.2 0.00 0.03 0.03 67 1021.8
20260505090638 18 226 14.5 27.4 0.00 0.03 0.03 67 1022.0
20260505090136 18 236 9.7 40.2 0.00 0.03 0.03 67 1022.0
20260505085633 18 226 20.9 32.2 0.00 0.03 0.03 68 1021.6
20260505085132 18 232 14.5 32.2 0.00 0.03 0.03 68 1021.6
20260505084629 18 232 8.0 29.0 0.00 0.03 0.03 68 1021.8
20260505084127 18 240 11.3 24.1 0.00 0.03 0.03 69 1021.7
20260505083624 18 252 9.7 24.1 0.00 0.03 0.03 68 1021.9
20260505083121 18 229 6.4 22.5 0.00 0.03 0.03 68 1021.6
20260505082616 18 204 4.8 24.1 0.00 0.03 0.03 68 1021.7
20260505082114 18 225 11.3 20.9 0.00 0.03 0.03 68 1021.8
20260505081610 18 234 12.9 22.5 0.00 0.03 0.03 68 1021.9
20260505081108 18 223 11.3 27.4 0.00 0.03 0.03 67 1021.7
20260505080603 18 220 9.7 25.7 0.00 0.03 0.03 68 1021.8
20260505080100 18 215 11.3 19.3 0.00 0.03 0.03 68 1021.6
20260505075556 18 198 25.7 27.4 0.00 0.03 0.03 68 1021.8
20260505075053 18 235 8.0 20.9 0.00 0.03 0.03 68 1021.7
20260505074550 18 244 8.0 24.1 0.00 0.03 0.03 67 1021.7
20260505074047 18 205 14.5 24.1 0.00 0.03 0.03 68 1021.8
20260505073544 18 253 14.5 41.8 0.00 0.03 0.03 67 1021.7
20260505073043 18 232 17.7 27.4 0.00 0.03 0.03 68 1021.6
20260505072538 18 233 6.4 24.1 0.00 0.03 0.03 68 1021.5
20260505072035 18 229 12.9 24.1 0.00 0.03 0.03 67 1021.8
20260505071535 19 227 11.3 25.7 0.00 0.03 0.03 66 1022.0
20260505071034 19 237 22.5 45.1 0.00 0.03 0.03 64 1022.0
20260505070531 18 229 17.7 30.6 0.00 0.03 0.03 65 1022.1
20260505070027 18 228 8.0 27.4 0.00 0.03 0.03 65 1022.1
20260505065523 18 236 37.0 37.0 0.00 0.03 0.03 65 1022.1
20260505065020 19 246 24.1 51.5 0.00 0.03 0.03 65 1022.4
20260505064517 18 239 8.0 24.1 0.00 0.03 0.03 66 1022.3
20260505064015 18 240 16.1 27.4 0.00 0.03 0.03 68 1022.4
20260505063512 18 230 11.3 30.6 0.00 0.03 0.03 69 1022.6
20260505063008 17 215 11.3 35.4 0.00 0.03 0.03 71 1022.4
20260505062505 16 260 14.5 22.5 0.05 0.03 0.03 75 1022.5
20260505062002 16 251 9.7 16.1 0.05 0.03 0.03 77 1022.6
20260505061500 15 129 9.7 20.9 0.00 0.00 0.00 82 1022.4
20260505060957 13 210 3.2 6.4 0.00 0.00 0.00 88 1023.0
20260505060454 13 0 0.0 3.2 0.00 0.00 0.00 88 1023.0
20260505055950 13 98 4.8 4.8 0.00 0.00 0.00 88 1022.7
20260505055446 13 102 3.2 3.2 0.00 0.00 0.00 88 1023.2
20260505054943 14 19 0.0 4.8 0.00 0.00 0.00 87 1023.2
20260505054441 14 34 3.2 3.2 0.00 0.00 0.00 86 1023.3
20260505053938 14 49 1.6 3.2 0.00 0.00 0.00 86 1023.3
20260505053435 14 37 0.0 1.6 0.00 0.00 0.00 85 1023.4
20260505052932 15 20 3.2 3.2 0.00 0.00 0.00 84 1023.7
20260505052429 15 2 1.6 3.2 0.00 0.00 0.00 82 1023.7
20260505051926 15 347 1.6 3.2 0.00 0.00 0.00 81 1023.6
20260505051423 15 298 1.6 3.2 0.00 0.00 0.00 81 1023.6
20260505050921 15 270 3.2 8.0 0.00 0.00 0.00 79 1023.6
20260505050420 15 282 4.8 9.7 0.00 0.00 0.00 80 1023.7
20260505041347 16 256 16.1 19.3 0.00 0.00 0.00 68 1024.3
20260505040844 17 272 9.7 35.4 0.00 0.00 0.00 66 1024.1
20260505040342 18 293 9.7 27.4 0.00 0.00 0.00 63 1024.2
20260505035838 19 271 20.9 38.6 0.00 0.00 0.00 61 1023.7
20260505035334 19 224 24.1 33.8 0.00 0.00 0.00 63 1023.6
20260505034831 18 243 22.5 29.0 0.00 0.00 0.00 64 1023.3
20260505034328 18 238 12.9 24.1 0.00 0.00 0.00 67 1023.4
20260505033825 18 226 6.4 32.2 0.00 0.00 0.00 68 1023.2
20260505033322 18 286 11.3 29.0 0.00 0.00 0.00 68 1023.1
20260505032820 18 227 17.7 32.2 0.00 0.00 0.00 68 1023.0
20260505032316 18 227 14.5 33.8 0.00 0.00 0.00 67 1022.8
20260505031814 18 213 14.5 25.7 0.00 0.00 0.00 68 1023.0
20260505031310 18 200 6.4 35.4 0.00 0.00 0.00 68 1022.9
20260505030807 18 218 11.3 27.4 0.00 0.00 0.00 69 1023.0
20260505030303 18 262 6.4 25.7 0.00 0.00 0.00 69 1023.2
20260505025758 18 215 6.4 40.2 0.00 0.00 0.00 69 1023.1
20260505025257 18 219 14.5 30.6 0.00 0.00 0.00 68 1023.0
20260505024755 18 218 9.7 24.1 0.00 0.00 0.00 68 1022.8
20260505024252 17 214 22.5 22.5 0.00 0.00 0.00 69 1023.1
20260505023749 18 194 8.0 30.6 0.00 0.00 0.00 68 1023.1
20260505023246 17 211 4.8 24.1 0.00 0.00 0.00 71 1023.2
20260505022743 17 215 8.0 27.4 0.00 0.00 0.00 73 1023.3
20260505022240 17 220 6.4 19.3 0.00 0.00 0.00 75 1023.3
20260505021737 17 209 8.0 17.7 0.00 0.00 0.00 73 1023.3
20260505021234 17 225 11.3 27.4 0.00 0.00 0.00 71 1023.3
20260505020729 17 229 8.0 16.1 0.00 0.00 0.00 70 1023.3
20260505020225 17 240 6.4 20.9 0.00 0.00 0.00 68 1023.6
20260505015723 18 245 4.8 19.3 0.00 0.00 0.00 68 1023.6
20260505015219 18 251 12.9 19.3 0.00 0.00 0.00 67 1023.6
20260505014716 17 226 8.0 12.9 0.00 0.00 0.00 69 1023.6
20260505014214 17 250 4.8 12.9 0.00 0.00 0.00 69 1023.6
20260505013710 18 242 6.4 11.3 0.00 0.00 0.00 67 1023.4
20260505013208 18 247 12.9 17.7 0.00 0.00 0.00 65 1023.6
20260505012706 18 258 16.1 20.9 0.00 0.00 0.00 64 1023.5
20260505012203 18 236 30.6 32.2 0.00 0.00 0.00 63 1023.5
20260505011658 19 216 6.4 30.6 0.00 0.00 0.00 61 1023.3
20260505011156 20 246 35.4 41.8 0.00 0.00 0.00 59 1023.3
20260505010651 20 266 11.3 35.4 0.00 0.00 0.00 55 1023.5
20260505010148 20 228 16.1 16.1 0.00 0.00 0.00 51 1023.0
20260505005644 20 248 11.3 14.5 0.00 0.00 0.00 51 1023.2
20260505005141 20 219 4.8 8.0 0.00 0.00 0.00 51 1023.0
20260505004638 20 241 6.4 9.7 0.00 0.00 0.00 51 1023.1
20260505004134 19 248 6.4 9.7 0.00 0.00 0.00 52 1023.2
20260505003632 18 252 6.4 8.0 0.00 0.00 0.00 52 1023.3